Regional Weather Roundup
Issued by NWS

Home | Current Version | Previous Version | Graphics & Text | Print | Product List | Glossary On
Versions: 1 2 3 4 5 6 7 8 9 10 11 12 13 14 15 16 17 18 19 20 21 22 23 24 25 26 27 28 29 30 31 32 33 34 35 36 37 38 39 40 41 42 43 44 45 46 47 48 49 50
000
ASUS45 KABQ 301101
RWRNM
WEATHER ROUNDUP FOR NEW MEXICO
NATIONAL WEATHER SERVICE ALBUQUERQUE NM
400 AM MST FRI JAN 30 2015

NOTE: "FAIR" MEANS FEW OR NO CLOUDS BELOW 12,000 FEET AGL WITH NO
       SIGNIFICANT WEATHER OR OBSTRUCTIONS TO VISION.

      THIS PRODUCT IS RELEASED AS TWO VERSIONS.  ONE VERSION NEAR
      THE TOP OF THE HOUR CONTAINING PRELIMINARY DATA FROM ALBUQUERQUE
      AND OTHER STATIONS.  A FINAL VERSION WITH ADDITIONAL DATA IS
      ISSUED ABOUT 10 MINUTES AFTER THE HOUR.

NMZ501-503-504-510>518-301200-
NORTHWEST PLATEAU/NORTHCENTRAL MOUNTAINS

CITY           SKY/WX    TMP DP  RH WIND       PRES   REMARKS
FARMINGTON     LGT SNOW  33  31  92 E10       30.26F FOG     WCI  25
SANTA FE       LGT SNOW  29  26  89 SE8       30.36F FOG     WCI  21
TAOS           CLOUDY    28  25  86 CALM      30.35F

$$
NMZ402-403-502-505>509-301200-
WESTCENTRAL MOUNTAINS/SOUTHWEST MOUNTAINS

CITY           SKY/WX    TMP DP  RH WIND       PRES   REMARKS
GALLUP         LGT SNOW  32  31  96 E9        30.20F VSB 1   WCI  24
GRANTS         LGT SNOW  31  30  97 S17G24    30.27F WCI  19
SILVER CITY    LGT RAIN  39  39 100 SE13      30.24F WCI  32

$$
NMZ407-409-411-412-301200-
SOUTHERN DESERTS

CITY           SKY/WX    TMP DP  RH WIND       PRES   REMARKS
DEMING         RAIN      40  39  97 E16       30.23F FOG     WCI  31
HOLLOMAN AFB   CLOUDY    44  38  82 CALM      30.26F
ALAMOGORDO     CLOUDY    45  36  70 N6        30.27F
T OR C         LGT RAIN  41  38  89 N7        30.26F

$$
NMZ519>523-301200-
CENTRAL VALLEYS/CENTRAL HIGHLANDS

CITY           SKY/WX    TMP DP  RH WIND       PRES   REMARKS
ALBUQUERQUE    CLOUDY    36  27  69 E21G29    30.32F WCI  25
DOUBLE EAGLE   MIX PCPN  31  29  95 N8        30.33F WCI  23
MORIARTY ARPT  LGT SNOW  30  28  91 E5        30.38F WCI  25
CLINES CORNERS LGT SNOW  26  24  92 E12       30.33F FOG     WCI  16
BELEN          DRIZZLE   33  33 100 NW8       30.32F WCI  26
SOCORRO        NOT AVBL

$$
NMZ524>526-539-540-301200-
SOUTHCENTRAL MOUNTAINS

CITY           SKY/WX    TMP DP  RH WIND       PRES   REMARKS
RUIDOSO        NOT AVBL

$$
NMZ527>531-301200-
NORTHEAST HIGHLANDS/NORTHEAST PLAINS

CITY           SKY/WX    TMP DP  RH WIND       PRES   REMARKS
LAS VEGAS      LGT SNOW  26  24  92 SW8       30.39F VSB 1   WCI  18
RATON          CLOUDY    34  26  72 SW7       30.36F WCI  28
CLAYTON        CLOUDY    35  30  82 S6        30.38F WCI  30

$$
NMZ532>537-301200-
EASTCENTRAL PLAINS

CITY           SKY/WX    TMP DP  RH WIND       PRES   REMARKS
TUCUMCARI      CLOUDY    39  33  79 CALM      30.40F
CANNON AFB     CLOUDY    38  29  71 E1        30.40F
CLOVIS AIRPORT CLOUDY    37  28  70 SE3       30.42F

$$
NMZ028-029-538-301200-
SOUTHEAST PLAINS

CITY           SKY/WX    TMP DP  RH WIND       PRES   REMARKS
ROSWELL        CLOUDY    43  28  55 E8        30.40F
ARTESIA        CLOUDY    43  32  65 S6        30.41F
CARLSBAD       CLOUDY    44  32  62 CALM      30.39F
HOBBS          CLOUDY    41  25  52 NE8       30.41F


$$



USA.gov is the U.S. government's official web portal to all federal, state and local government web resources and services.